EW6338 Weather Reports


time (UTC)temp
F
wind
direction
speed
knots
gust
knots
rain 1hr
in
rain 24hr
in
rain mn
in
humidity
%
barometer
mb
20260507084500 48 47 0.0 2.6 0.00 0.24 0.00 90 1005.6
20260507083059 48 4 0.0 0.9 0.00 0.24 0.00 91 1005.2
20260507081601 49 93 0.0 1.7 0.00 0.24 0.00 90 1005.4
20260507080112 49 61 0.0 1.7 0.00 0.24 0.00 90 1005.7
20260507074557 50 60 0.0 1.7 0.00 0.24 0.00 90 1005.7
20260507073051 50 298 0.0 0.9 0.00 0.24 0.00 91 1005.2
20260507071550 50 262 0.0 0.9 0.00 0.24 0.00 91 1004.9
20260507070058 50 26 0.0 1.7 0.00 0.24 0.00 91 1004.9
20260507064620 50 43 0.0 2.6 0.00 0.24 0.00 91 1004.8
20260507063052 50 5 0.0 0.9 0.00 0.24 0.00 92 1004.6
20260507061546 50 261 0.0 1.7 0.00 0.24 0.00 93 1004.7
20260507060106 51 59 0.0 2.6 0.00 0.24 0.00 94 1004.8
20260507054547 52 68 0.0 2.6 0.00 0.24 0.00 95 1005.1
20260507053041 52 25 0.0 1.7 0.00 0.24 0.00 95 1004.8
20260507051551 52 300 0.0 3.5 0.00 0.24 0.00 95 1005.0
20260507050044 53 5 0.0 3.5 0.00 0.24 0.00 95 1005.2
20260507044533 54 13 0.0 1.7 0.00 0.24 0.00 95 1004.8
20260507043029 56 264 0.9 4.3 0.00 0.24 0.00 95 1004.7
20260507041528 57 50 0.0 3.5 0.00 0.24 0.00 96 1004.9
20260507040024 58 311 0.0 0.9 0.00 0.24 0.00 96 1004.7
20260507034523 58 270 0.0 5.2 0.00 0.24 0.24 96 1004.4
20260507033021 59 4 0.9 8.7 0.00 0.24 0.24 96 1004.1
20260507031518 59 150 0.9 4.3 0.00 0.24 0.24 96 1003.8
20260507030027 59 210 0.0 3.5 0.00 0.24 0.24 96 1003.7
20260507024524 59 173 0.0 2.6 0.00 0.24 0.24 96 1003.6
20260507023017 59 142 0.0 1.7 0.00 0.24 0.24 96 1003.8
20260507021517 59 259 0.9 6.1 0.00 0.24 0.24 96 1003.7
20260507020015 58 210 0.0 4.3 0.00 0.24 0.24 96 1003.7
20260507014515 58 283 0.9 3.5 0.00 0.24 0.24 96 1003.9
20260507013016 58 222 0.9 4.3 0.00 0.24 0.24 96 1004.0
20260507011514 59 196 0.0 4.3 0.00 0.24 0.24 96 1004.1
20260507010015 59 258 0.0 3.5 0.00 0.24 0.24 96 1004.1
20260507004515 59 255 0.9 7.8 0.00 0.24 0.24 96 1004.0
20260507003011 59 212 0.9 4.3 0.00 0.24 0.24 96 1003.9
20260507001516 59 94 0.0 3.5 0.01 0.24 0.24 96 1003.8
20260507000010 59 120 0.0 3.5 0.02 0.24 0.24 96 1003.7
20260506234510 59 210 0.0 3.5 0.04 0.24 0.24 96 1003.7
20260506233012 59 228 0.9 6.1 0.06 0.24 0.24 96 1003.7
20260506231507 59 287 0.0 2.6 0.06 0.23 0.23 95 1003.9
20260506230014 59 176 0.0 3.5 0.05 0.21 0.21 95 1004.1
20260506224504 59 221 1.7 7.0 0.03 0.19 0.19 95 1004.1
20260506223001 59 235 0.9 7.0 0.03 0.18 0.18 95 1004.2
20260506221631 59 146 0.0 7.0 0.03 0.17 0.17 95 1004.1
20260506220132 60 267 0.9 6.1 0.04 0.16 0.16 94 1004.3
20260506214600 60 234 0.0 2.6 0.05 0.16 0.16 94 1004.4
20260506213109 60 189 0.0 1.7 0.06 0.15 0.15 94 1004.8
20260506211558 60 202 0.0 3.5 0.08 0.14 0.14 93 1004.8
20260506210056 61 175 0.9 5.2 0.08 0.12 0.12 92 1004.9
20260506204556 61 226 0.0 3.5 0.08 0.11 0.11 91 1005.0
20260506203049 62 213 0.0 7.8 0.07 0.09 0.09 90 1004.8
20260506201550 62 217 0.0 2.6 0.05 0.06 0.06 88 1004.9
20260506200047 63 265 0.9 7.0 0.04 0.04 0.04 87 1004.8
20260506194546 64 235 0.0 4.3 0.03 0.03 0.03 85 1004.8
20260506193044 65 284 0.0 7.0 0.02 0.02 0.02 81 1004.9
20260506191549 66 160 0.0 5.2 0.01 0.01 0.01 76 1005.0
20260506190043 68 238 0.0 7.0 0.00 0.00 0.00 71 1005.1
20260506184553 70 101 0.0 3.5 0.00 0.00 0.00 68 1004.9
20260506183041 71 287 0.9 6.1 0.00 0.00 0.00 64 1004.9
20260506181542 71 181 2.6 10.4 0.00 0.00 0.00 63 1004.9
20260506180041 72 229 0.9 10.4 0.00 0.00 0.00 63 1005.2
20260506174537 72 258 1.7 7.8 0.00 0.00 0.00 62 1005.4
20260506173044 73 148 2.6 10.4 0.00 0.00 0.00 61 1005.2
20260506171548 73 213 1.7 10.4 0.00 0.00 0.00 63 1005.3
20260506170038 73 128 0.9 4.3 0.00 0.00 0.00 62 1005.6
20260506164531 72 184 1.7 7.8 0.00 0.00 0.00 60 1005.7
20260506163034 72 160 3.5 7.8 0.00 0.00 0.00 62 1005.9
20260506161525 72 287 0.0 6.1 0.00 0.00 0.00 63 1006.2
20260506160023 71 121 0.9 4.3 0.00 0.00 0.00 65 1006.5
20260506154520 71 233 0.9 5.2 0.00 0.00 0.00 66 1006.8
20260506153017 70 141 0.0 10.4 0.00 0.00 0.00 67 1007.0
20260506151522 71 266 0.9 9.6 0.00 0.00 0.00 66 1007.2
20260506150016 70 250 1.7 7.0 0.00 0.00 0.00 67 1007.4
20260506144516 71 139 1.7 6.1 0.00 0.00 0.00 67 1007.2
20260506143012 70 288 1.7 9.6 0.00 0.00 0.00 69 1007.1
20260506141509 68 265 0.9 6.1 0.00 0.00 0.00 72 1007.1
20260506140015 67 99 0.9 10.4 0.00 0.00 0.00 73 1007.3
20260506134504 67 299 2.6 8.7 0.00 0.00 0.00 74 1007.4
20260506133002 66 255 1.7 6.1 0.00 0.00 0.00 75 1007.8
20260506131617 66 226 1.7 5.2 0.00 0.00 0.00 76 1007.7
20260506130101 65 351 0.9 7.8 0.00 0.00 0.00 76 1007.7
20260506124558 65 278 2.6 9.6 0.00 0.00 0.00 76 1007.6
20260506123056 64 274 0.0 5.2 0.00 0.00 0.00 78 1007.9
20260506121557 63 156 0.0 3.5 0.00 0.00 0.00 79 1007.7
20260506120055 63 155 1.7 5.2 0.00 0.00 0.00 79 1008.0
20260506114555 63 19 0.0 5.2 0.00 0.00 0.00 80 1008.1
20260506113051 62 260 1.7 7.0 0.00 0.00 0.00 80 1008.3
20260506111551 62 261 0.0 5.2 0.00 0.00 0.00 81 1008.0
20260506110050 61 86 0.0 3.5 0.00 0.00 0.00 82 1008.2
20260506104554 61 199 0.9 3.5 0.00 0.00 0.00 81 1008.2
20260506103052 61 229 0.9 4.3 0.00 0.00 0.00 81 1008.2
20260506101547 61 219 0.0 3.5 0.00 0.00 0.00 81 1008.2
20260506094546 61 173 0.0 2.6 0.00 0.00 0.00 80 1007.9
20260506093043 61 281 0.0 3.5 0.00 0.00 0.00 80 1008.1
20260506091542 61 137 0.9 7.0 0.00 0.00 0.00 79 1008.1
20260506090040 61 158 0.0 4.3 0.00 0.00 0.00 78 1008.1